CZ-6A DEB

Satellite information

Favourite Embed

Satellite Type and Status

DEBRISIN ORBIT

Key statistics

Satellite CZ-6A DEB at a glance.

Uptime

1128

Days in orbit

Revolutions

≈ 14.6

Per day

Orbit

SSO

Sun Synchronous Orbit

Inclination

98.6

Latest

Satellite identification and parameters

Extended collection of information and parameters for CZ-6A DEB.

Object identification

Identified? True

Debris? True

Object name: CZ-6A DEB

International designator: 2022-151AHG

Object number (NORAD): 56680

Object ID (CCSDS): 56680

Country: PEOPLES REPUBLIC OF CHINA (PRC)

Current information (Y/N): Y

RCS size: SMALL

Orbital parameters

Period: 98.585 minutes

Inclination: 98.632 deg

SMA: 7069.167 km

Apoapsis: 752.108 km

Periapsis: 629.957 km

RAAN: 34.3078 deg

Eccentricy: 0.00863975

Argument of periapsis: 152.1394 deg

Mean anomaly: 208.4471 deg

Mean motion: 14.60664113 rev/day

Mean motion (dot): 0.00015286 rev/day2

B* drag term: 0.0029830878 1/REarth

Two-line elements (TLE)

Creation date: Dec. 12, 2025, 10:14 a.m.

Reference frame: TEME

Reference center: EARTH

Epoch: Dec. 12, 2025, 2:40 a.m. UTC

TLE line 0: 0 CZ-6A DEB

TLE line 1: 1 56680U 22151AHG 25346.11172626 .00015286 00000-0 29831-2 0 9999

TLE line 2: 2 56680 98.6320 34.3078 0086397 152.1394 208.4471 14.60664113143598

Live tracking on map

Real-time ground track for satellite CZ-6A DEB.

In-orbit conjunctions

A list of the most updated potential collisions computed for object CZ-6A DEB.

Target Orbit TCA Probability of collision Miss distance Type
IRIDIUM 29 LEO 2025-04-24 00:05:05 0.0006978004 234.0 (m) PAYLOAD
ATLAS 5 CENTAUR R/B LEO 2024-08-25 06:32:06 0.0002017515 299.0 (m) ROCKET BODY

Associated space launch

Chinese satellite reported for atmospheric/ocean/environmental/spatial parameter research purposes, details TBD.

CZ-6A DEB was lifted into orbit during the mission ‘Long March 6A | Yunhai 3’, on board a Long March 6A space rocket.

The launch took place on Nov. 11, 2022, 10:52 p.m. from Launch Complex 9A.

For more information about the launch, click the button.

Launch to space Long March 6A | Yunhai 3
Long March 6A | Yunhai 3

Agency: N/A

Status: Launch Successful

Launch date: Nov. 11, 2022, 10:52 p.m. UTC

Rocket: Long March 6A

Launch pad: Launch Complex 9A

Location: Taiyuan Satellite Launch Center, People's Republic of China

...

Latest news about this satellite

There are no fresh news available about this satellite. Check back as we update our databases every day.


Newsletter sign-up

Weekly statistics, charts and insights to help you stay on top of the space industry.